Location: Edoum�
(0.9447°N, 10.6482°E)
Time: 20:50:16
(UTC+00:00)

Ariane 3 Deb - Pass Details

Date: 09 October 2020
Orbit: 230 x 18400 km, 6.8° (Epoch: 26 October)

Event Time Altitude Azimuth Distance (km) Brightness Sun altitude
Rises 18:48:38 0° 262° (W) 14,001 10.8 -26.0°
Reaches altitude 10° 19:07:04 10° 261° (W) 8,849 9.3 -30.5°
Enters shadow 19:27:16 74° 226° (SW) 1,300 4.0 -35.6°
